When you browse on this site, cookies collect data to enhance your experience and personalize the content and advertising you see.
Visit our Privacy Policy to learn more. By continuing to use the site, you agree to this use of cookies and data.
  • In Hungary
  • List of Countries
  • For 7 days
  • Water Temperature
  • Satellite Maps
  • Weather Map
  • News
  • Weather Widgets
  • user-avatar
    Login

    Hourly Weather Podvolochisk

    Today, 17 January, Thursday

    Time Temperature Precipitation Wind Pressure Humidity
    00:00 -1°C° 0 mm 3 mps 728 mmHg 96%
    01:00 -1°C° 0 mm 3 mps 728 mmHg 96%
    02:00 0°C° 0 mm 3 mps 728 mmHg 96%
    03:00 -1°C° 0 mm 3 mps 728 mmHg 96%
    04:00 -1°C° 0 mm 3 mps 728 mmHg 95%
    05:00 -1°C° 0 mm 3 mps 728 mmHg 94%
    06:00 -3°C° 0 mm 4 mps 727 mmHg 93%
    07:00 -3°C° 0 mm 4 mps 727 mmHg 91%
    08:00 -5°C° 0 mm 5 mps 727 mmHg 90%
    09:00 -4°C° 0 mm 5 mps 727 mmHg 89%
    10:00 -4°C° 0 mm 5 mps 727 mmHg 88%
    11:00 -2°C° 0 mm 5 mps 727 mmHg 87%
    12:00 -2°C° 0 mm 5 mps 726 mmHg 88%
    13:00 -1°C° 0 mm 4 mps 726 mmHg 89%
    14:00 -1°C° 0 mm 4 mps 726 mmHg 90%
    15:00 -1°C° 0 mm 4 mps 726 mmHg 89%
    16:00 -1°C° 0 mm 4 mps 726 mmHg 88%
    17:00 0°C° 0 mm 3 mps 726 mmHg 88%
    18:00 0°C° 0 mm 3 mps 726 mmHg 87%
    19:00 -1°C° 0 mm 3 mps 726 mmHg 87%
    20:00 -1°C° 0 mm 2 mps 726 mmHg 86%
    21:00 -1°C° 0 mm 2 mps 726 mmHg 86%
    22:00 -2°C° 0 mm 2 mps 727 mmHg 85%
    23:00 -2°C° 0 mm 2 mps 727 mmHg 85%

    Tomorrow, 18 January, Friday

    Time Temperature Precipitation Wind Pressure Humidity
    00:00 -2°C° 0 mm 2 mps 727 mmHg 85%
    01:00 -2°C° 0 mm 3 mps 727 mmHg 85%
    02:00 -2°C° 0 mm 3 mps 727 mmHg 85%
    03:00 -2°C° 0.1 mm 3 mps 726 mmHg 87%
    04:00 -1°C° 0.1 mm 3 mps 726 mmHg 88%
    05:00 -1°C° 0.1 mm 4 mps 726 mmHg 89%
    06:00 -1°C° 0 mm 4 mps 726 mmHg 89%
    07:00 -1°C° 0 mm 3 mps 726 mmHg 89%
    08:00 -1°C° 0 mm 3 mps 726 mmHg 89%
    09:00 -1°C° 0.1 mm 3 mps 726 mmHg 91%
    10:00 0°C° 0.1 mm 3 mps 726 mmHg 93%
    11:00 0°C° 0.1 mm 3 mps 727 mmHg 96%
    12:00 0°C° 0 mm 3 mps 727 mmHg 97%
    13:00 -1°C° 0 mm 4 mps 727 mmHg 98%
    14:00 0°C° 0 mm 4 mps 727 mmHg 99%
    15:00 -1°C° 0 mm 4 mps 728 mmHg 96%
    16:00 -1°C° 0 mm 4 mps 728 mmHg 93%
    17:00 -2°C° 0 mm 4 mps 729 mmHg 89%
    18:00 -2°C° 0 mm 4 mps 729 mmHg 89%
    19:00 -3°C° 0 mm 4 mps 730 mmHg 88%
    20:00 -3°C° 0 mm 4 mps 730 mmHg 88%
    21:00 -3°C° 0 mm 4 mps 731 mmHg 88%
    22:00 -5°C° 0 mm 5 mps 732 mmHg 88%
    23:00 -5°C° 0 mm 5 mps 732 mmHg 88%

    Day after tomorrow, 19 January, Saturday

    Time Temperature Precipitation Wind Pressure Humidity
    00:00 -6°C° 0 mm 5 mps 733 mmHg 88%
    01:00 -7°C° 0 mm 5 mps 733 mmHg 87%
    02:00 -8°C° 0 mm 5 mps 734 mmHg 87%
    03:00 -9°C° 0 mm 4 mps 734 mmHg 88%
    04:00 -8°C° 0 mm 3 mps 734 mmHg 90%
    05:00 -9°C° 0 mm 3 mps 735 mmHg 92%
    06:00 -9°C° 0 mm 3 mps 735 mmHg 92%
    07:00 -9°C° 0 mm 3 mps 736 mmHg 93%
    08:00 -8°C° 0 mm 2 mps 736 mmHg 94%
    09:00 -7°C° 0 mm 2 mps 737 mmHg 93%
    10:00 -6°C° 0 mm 2 mps 737 mmHg 92%
    11:00 -6°C° 0 mm 2 mps 738 mmHg 91%
    12:00 -5°C° 0 mm 2 mps 738 mmHg 91%
    13:00 -5°C° 0 mm 2 mps 737 mmHg 90%
    14:00 -2°C° 0 mm 1 mps 737 mmHg 90%
    15:00 -3°C° 0 mm 1 mps 737 mmHg 90%
    16:00 -4°C° 0 mm 1 mps 737 mmHg 90%
    17:00 -6°C° 0 mm 1 mps 737 mmHg 91%
    18:00 -6°C° 0 mm 1 mps 737 mmHg 90%
    19:00 -7°C° 0 mm 1 mps 737 mmHg 90%
    20:00 -7°C° 0 mm 1 mps 738 mmHg 89%
    21:00 -8°C° 0 mm 2 mps 738 mmHg 89%
    22:00 -8°C° 0 mm 2 mps 737 mmHg 89%
    23:00 -9°C° 0 mm 2 mps 737 mmHg 89%

    20 January, Sunday

    Time Temperature Precipitation Wind Pressure Humidity
    00:00 -9°C° 0 mm 2 mps 737 mmHg 89%
    01:00 -9°C° 0 mm 2 mps 737 mmHg 89%
    02:00 -12°C° 0 mm 3 mps 737 mmHg 89%
    03:00 -10°C° 0 mm 3 mps 736 mmHg 90%
    04:00 -10°C° 0 mm 3 mps 736 mmHg 90%
    05:00 -10°C° 0 mm 3 mps 735 mmHg 91%
    06:00 -10°C° 0 mm 3 mps 735 mmHg 91%
    07:00 -10°C° 0 mm 4 mps 735 mmHg 90%
    08:00 -10°C° 0 mm 4 mps 735 mmHg 90%
    09:00 -9°C° 0.1 mm 4 mps 735 mmHg 90%
    10:00 -10°C° 0.1 mm 5 mps 735 mmHg 90%
    11:00 -10°C° 0.1 mm 5 mps 735 mmHg 89%
    12:00 -10°C° 0.3 mm 5 mps 734 mmHg 90%
    13:00 -8°C° 0.3 mm 4 mps 734 mmHg 91%
    14:00 -8°C° 0.3 mm 4 mps 733 mmHg 92%
    15:00 -8°C° 0.3 mm 3 mps 733 mmHg 93%
    16:00 -8°C° 0.3 mm 3 mps 733 mmHg 94%
    17:00 -7°C° 0.3 mm 2 mps 732 mmHg 95%
    18:00 -7°C° 0.1 mm 2 mps 732 mmHg 96%
    19:00 -6°C° 0.1 mm 1 mps 732 mmHg 96%
    20:00 -6°C° 0.1 mm 1 mps 732 mmHg 97%
    21:00 -6°C° 0 mm 1 mps 732 mmHg 97%
    22:00 -7°C° 0 mm 1 mps 733 mmHg 96%
    23:00 -7°C° 0 mm 1 mps 733 mmHg 96%

    21 January, Monday

    Time Temperature Precipitation Wind Pressure Humidity
    00:00 -7°C° 0 mm 1 mps 733 mmHg 96%
    01:00 -9°C° 0 mm 2 mps 733 mmHg 96%
    02:00 -9°C° 0 mm 2 mps 733 mmHg 96%
    03:00 -10°C° 0 mm 3 mps 733 mmHg 96%
    04:00 -10°C° 0 mm 3 mps 733 mmHg 96%
    05:00 -9°C° 0 mm 3 mps 733 mmHg 96%
    06:00 -9°C° 0 mm 3 mps 734 mmHg 95%
    07:00 -9°C° 0 mm 3 mps 734 mmHg 95%
    08:00 -9°C° 0 mm 3 mps 734 mmHg 94%
    09:00 -9°C° 0 mm 3 mps 735 mmHg 93%
    10:00 -9°C° 0 mm 3 mps 735 mmHg 93%
    11:00 -9°C° 0 mm 3 mps 735 mmHg 92%
    12:00 -8°C° 0 mm 3 mps 736 mmHg 91%
    13:00 -8°C° 0 mm 3 mps 736 mmHg 90%
    14:00 -7°C° 0 mm 3 mps 736 mmHg 90%
    15:00 -7°C° 0 mm 3 mps 736 mmHg 90%
    16:00 -7°C° 0 mm 3 mps 736 mmHg 91%
    17:00 -7°C° 0 mm 3 mps 736 mmHg 92%
    18:00 -6°C° 0 mm 2 mps 737 mmHg 91%
    19:00 -7°C° 0 mm 2 mps 737 mmHg 90%
    20:00 -7°C° 0 mm 2 mps 737 mmHg 89%
    21:00 -7°C° 0 mm 1 mps 738 mmHg 89%
    22:00 -8°C° 0 mm 1 mps 738 mmHg 89%
    23:00 -10°C° 0 mm 0 mps 738 mmHg 89%

    22 January, Tuesday

    Time Temperature Precipitation Wind Pressure Humidity
    00:00 -10°C° 0 mm 1 mps 738 mmHg 89%
    01:00 -10°C° 0 mm 1 mps 738 mmHg 90%
    02:00 -10°C° 0 mm 1 mps 738 mmHg 90%
    03:00 -13°C° 0 mm 2 mps 737 mmHg 91%
    04:00 -13°C° 0 mm 2 mps 737 mmHg 91%
    05:00 -13°C° 0 mm 2 mps 737 mmHg 92%
    06:00 -13°C° 0 mm 2 mps 737 mmHg 93%
    07:00 -15°C° 0 mm 3 mps 736 mmHg 94%
    08:00 -15°C° 0 mm 3 mps 736 mmHg 95%
    09:00 -14°C° 0 mm 3 mps 736 mmHg 95%
    10:00 -13°C° 0 mm 3 mps 736 mmHg 95%
    11:00 -12°C° 0 mm 4 mps 736 mmHg 95%
    12:00 -12°C° 0 mm 4 mps 735 mmHg 95%
    13:00 -11°C° 0 mm 4 mps 734 mmHg 94%
    14:00 -11°C° 0 mm 4 mps 734 mmHg 94%
    15:00 -11°C° 0 mm 4 mps 733 mmHg 94%
    16:00 -11°C° 0 mm 4 mps 733 mmHg 94%
    17:00 -12°C° 0 mm 4 mps 733 mmHg 94%
    18:00 -12°C° 0 mm 4 mps 732 mmHg 94%
    19:00 -13°C° 0 mm 5 mps 732 mmHg 93%
    20:00 -13°C° 0 mm 5 mps 731 mmHg 93%
    21:00 -13°C° 0 mm 5 mps 731 mmHg 94%
    22:00 -12°C° 0 mm 5 mps 730 mmHg 94%
    23:00 -12°C° 0 mm 5 mps 730 mmHg 94%
    Show more